• In Belarus
  • List of Countries
  • For 7 days
  • Water Temperature
  • Satellite Maps
  • Weather Map
  • Weather Widgets
  • user-avatar
    Login

    Hourly Weather Cancale

    Today, 17 August, Friday

    Time Temperature Precipitation Wind Pressure Humidity
    00:00 +12°C° 0 mm 4 mps 763 mmHg 91%
    01:00 +12°C° 0 mm 4 mps 763 mmHg 91%
    02:00 +12°C° 0 mm 4 mps 763 mmHg 91%
    03:00 +12°C° 0 mm 4 mps 763 mmHg 91%
    04:00 +13°C° 0 mm 3 mps 764 mmHg 90%
    05:00 +13°C° 0 mm 3 mps 764 mmHg 90%
    06:00 +13°C° 0 mm 3 mps 764 mmHg 90%
    07:00 +16°C° 0 mm 3 mps 764 mmHg 83%
    08:00 +17°C° 0 mm 3 mps 765 mmHg 76%
    09:00 +19°C° 0 mm 4 mps 765 mmHg 69%
    10:00 +20°C° 0 mm 4 mps 765 mmHg 66%
    11:00 +20°C° 0 mm 4 mps 765 mmHg 63%
    12:00 +21°C° 0 mm 4 mps 765 mmHg 60%
    13:00 +21°C° 0 mm 4 mps 765 mmHg 60%
    14:00 +21°C° 0 mm 4 mps 765 mmHg 60%
    15:00 +21°C° 0 mm 5 mps 765 mmHg 60%
    16:00 +20°C° 0 mm 4 mps 765 mmHg 63%
    17:00 +20°C° 0 mm 4 mps 765 mmHg 66%
    18:00 +19°C° 0 mm 4 mps 765 mmHg 69%
    19:00 +18°C° 0 mm 3 mps 766 mmHg 75%
    20:00 +16°C° 0 mm 3 mps 766 mmHg 80%
    21:00 +14°C° 0 mm 3 mps 767 mmHg 86%
    22:00 +15°C° 0 mm 2 mps 767 mmHg 87%
    23:00 +14°C° 0 mm 2 mps 767 mmHg 89%

    Tomorrow, 18 August, Saturday

    Time Temperature Precipitation Wind Pressure Humidity
    00:00 +14°C° 0 mm 2 mps 767 mmHg 91%
    01:00 +14°C° 0 mm 2 mps 767 mmHg 91%
    02:00 +14°C° 0 mm 2 mps 767 mmHg 92%
    03:00 +14°C° 0 mm 2 mps 766 mmHg 93%
    04:00 +14°C° 0 mm 2 mps 767 mmHg 93%
    05:00 +15°C° 0 mm 2 mps 767 mmHg 93%
    06:00 +15°C° 0 mm 2 mps 767 mmHg 92%
    07:00 +16°C° 0 mm 2 mps 767 mmHg 87%
    08:00 +18°C° 0 mm 2 mps 767 mmHg 82%
    09:00 +19°C° 0 mm 2 mps 767 mmHg 77%
    10:00 +20°C° 0 mm 2 mps 767 mmHg 74%
    11:00 +20°C° 0 mm 2 mps 767 mmHg 71%
    12:00 +21°C° 0 mm 2 mps 767 mmHg 68%
    13:00 +21°C° 0 mm 2 mps 766 mmHg 68%
    14:00 +22°C° 0 mm 3 mps 766 mmHg 68%
    15:00 +22°C° 0 mm 3 mps 766 mmHg 67%
    16:00 +21°C° 0 mm 3 mps 766 mmHg 70%
    17:00 +21°C° 0 mm 3 mps 766 mmHg 72%
    18:00 +21°C° 0 mm 3 mps 766 mmHg 75%
    19:00 +19°C° 0 mm 2 mps 766 mmHg 80%
    20:00 +18°C° 0 mm 2 mps 766 mmHg 86%
    21:00 +16°C° 0 mm 2 mps 767 mmHg 92%
    22:00 +16°C° 0 mm 2 mps 767 mmHg 92%
    23:00 +16°C° 0 mm 1 mps 766 mmHg 93%

    Day after tomorrow, 19 August, Sunday

    Time Temperature Precipitation Wind Pressure Humidity
    00:00 +15°C° 0 mm 1 mps 766 mmHg 93%
    01:00 +15°C° 0 mm 2 mps 766 mmHg 94%
    02:00 +15°C° 0 mm 2 mps 766 mmHg 94%
    03:00 +15°C° 0 mm 2 mps 766 mmHg 94%
    04:00 +15°C° 0 mm 2 mps 766 mmHg 94%
    05:00 +15°C° 0 mm 2 mps 766 mmHg 94%
    06:00 +15°C° 0 mm 2 mps 766 mmHg 94%
    07:00 +17°C° 0 mm 3 mps 766 mmHg 87%
    08:00 +19°C° 0 mm 3 mps 766 mmHg 79%
    09:00 +21°C° 0 mm 4 mps 765 mmHg 72%
    10:00 +23°C° 0 mm 4 mps 765 mmHg 66%
    11:00 +25°C° 0 mm 3 mps 765 mmHg 59%
    12:00 +27°C° 0 mm 3 mps 765 mmHg 53%
    13:00 +27°C° 0 mm 4 mps 765 mmHg 54%
    14:00 +27°C° 0 mm 4 mps 765 mmHg 54%
    15:00 +28°C° 0 mm 4 mps 764 mmHg 55%
    16:00 +26°C° 0 mm 5 mps 764 mmHg 62%
    17:00 +25°C° 0 mm 5 mps 764 mmHg 70%
    18:00 +22°C° 0 mm 6 mps 764 mmHg 78%
    19:00 +21°C° 0 mm 5 mps 765 mmHg 83%
    20:00 +19°C° 0 mm 4 mps 765 mmHg 88%
    21:00 +18°C° 0 mm 4 mps 765 mmHg 93%
    22:00 +18°C° 0 mm 4 mps 765 mmHg 95%
    23:00 +18°C° 0 mm 3 mps 765 mmHg 96%

    20 August, Monday

    Time Temperature Precipitation Wind Pressure Humidity
    00:00 +17°C° 0 mm 3 mps 765 mmHg 97%
    01:00 +18°C° 0 mm 3 mps 765 mmHg 96%
    02:00 +18°C° 0 mm 3 mps 765 mmHg 96%
    03:00 +18°C° 0 mm 3 mps 765 mmHg 96%
    04:00 +18°C° 0 mm 3 mps 765 mmHg 96%
    05:00 +18°C° 0 mm 3 mps 765 mmHg 95%
    06:00 +18°C° 0 mm 3 mps 765 mmHg 95%
    07:00 +20°C° 0 mm 3 mps 765 mmHg 89%
    08:00 +21°C° 0 mm 3 mps 765 mmHg 83%
    09:00 +22°C° 0 mm 3 mps 766 mmHg 78%
    10:00 +24°C° 0 mm 3 mps 766 mmHg 72%
    11:00 +25°C° 0 mm 4 mps 766 mmHg 66%
    12:00 +25°C° 0 mm 4 mps 766 mmHg 60%
    13:00 +26°C° 0 mm 4 mps 765 mmHg 59%
    14:00 +26°C° 0 mm 4 mps 765 mmHg 59%
    15:00 +26°C° 0 mm 4 mps 765 mmHg 59%
    16:00 +25°C° 0 mm 4 mps 765 mmHg 64%
    17:00 +23°C° 0 mm 4 mps 765 mmHg 69%
    18:00 +22°C° 0 mm 4 mps 765 mmHg 74%
    19:00 +20°C° 0 mm 3 mps 765 mmHg 81%
    20:00 +19°C° 0 mm 3 mps 766 mmHg 87%
    21:00 +18°C° 0 mm 2 mps 766 mmHg 94%
    22:00 +18°C° 0 mm 2 mps 766 mmHg 94%
    23:00 +17°C° 0 mm 2 mps 766 mmHg 95%

    21 August, Tuesday

    Time Temperature Precipitation Wind Pressure Humidity
    00:00 +17°C° 0 mm 2 mps 766 mmHg 95%
    01:00 +17°C° 0 mm 2 mps 766 mmHg 95%
    02:00 +17°C° 0 mm 2 mps 766 mmHg 96%
    03:00 +17°C° 0 mm 2 mps 766 mmHg 96%
    04:00 +17°C° 0 mm 2 mps 766 mmHg 97%
    05:00 +17°C° 0 mm 2 mps 766 mmHg 97%
    06:00 +19°C° 0 mm 1 mps 766 mmHg 97%
    07:00 +20°C° 0 mm 1 mps 766 mmHg 92%
    08:00 +21°C° 0 mm 2 mps 766 mmHg 86%
    09:00 +23°C° 0 mm 2 mps 766 mmHg 80%
    10:00 +24°C° 0 mm 2 mps 766 mmHg 77%
    11:00 +24°C° 0 mm 2 mps 766 mmHg 74%
    12:00 +25°C° 0 mm 2 mps 765 mmHg 71%
    13:00 +25°C° 0 mm 3 mps 765 mmHg 71%
    14:00 +25°C° 0 mm 3 mps 765 mmHg 70%
    15:00 +26°C° 0 mm 3 mps 765 mmHg 69%
    16:00 +25°C° 0 mm 3 mps 765 mmHg 72%
    17:00 +24°C° 0 mm 3 mps 764 mmHg 75%
    18:00 +22°C° 0 mm 3 mps 764 mmHg 78%
    19:00 +21°C° 0 mm 3 mps 765 mmHg 84%
    20:00 +19°C° 0 mm 3 mps 765 mmHg 89%
    21:00 +18°C° 0 mm 3 mps 765 mmHg 95%
    22:00 +18°C° 0 mm 2 mps 765 mmHg 96%
    23:00 +17°C° 0 mm 2 mps 765 mmHg 96%

    22 August, Wednesday

    Time Temperature Precipitation Wind Pressure Humidity
    00:00 +17°C° 0 mm 2 mps 765 mmHg 96%
    01:00 +17°C° 0 mm 2 mps 765 mmHg 96%
    02:00 +17°C° 0 mm 2 mps 765 mmHg 96%
    03:00 +18°C° 0 mm 1 mps 765 mmHg 96%
    04:00 +18°C° 0 mm 1 mps 765 mmHg 96%
    05:00 +18°C° 0 mm 1 mps 765 mmHg 96%
    06:00 +18°C° 0 mm 1 mps 765 mmHg 96%
    07:00 +20°C° 0 mm 1 mps 765 mmHg 89%
    08:00 +21°C° 0 mm 2 mps 765 mmHg 82%
    09:00 +24°C° 0 mm 2 mps 765 mmHg 75%
    10:00 +25°C° 0 mm 2 mps 765 mmHg 71%
    11:00 +26°C° 0 mm 3 mps 765 mmHg 67%
    12:00 +27°C° 0 mm 3 mps 765 mmHg 63%
    13:00 +27°C° 0 mm 3 mps 764 mmHg 64%
    14:00 +27°C° 0 mm 4 mps 764 mmHg 65%
    15:00 +27°C° 0 mm 4 mps 764 mmHg 65%
    16:00 +26°C° 0 mm 4 mps 764 mmHg 69%
    17:00 +25°C° 0 mm 4 mps 764 mmHg 72%
    18:00 +23°C° 0 mm 4 mps 764 mmHg 76%
    19:00 +21°C° 0 mm 4 mps 764 mmHg 81%
    20:00 +20°C° 0 mm 3 mps 765 mmHg 87%
    21:00 +18°C° 0 mm 3 mps 765 mmHg 93%
    22:00 +18°C° 0 mm 3 mps 765 mmHg 93%
    23:00 +18°C° 0 mm 3 mps 765 mmHg 94%
    Show more